CAPE
31 66 56 11 0 0 0 0 0 0 0 0 0 0 0 0 0 0 0 0 0 0 0 32 0 2 0 0 0 126 55 19 0 3 47 120 132 12 6 5 1 0 0 0 0 0 0 0 0
15 86 3 1 0 0 0 0 0 0 2 0 0 0 0 0 9 0 0 0 0 0 0 15 0 71 0 0 0 17 28 19 1 0 0 0 0 1 4 11 8 3 3 3 0 0 0 0 0
0 0 0 4 4 0 6 0 0 0 0 0 0 0 0 0 0 0 0 0 0 0 0 23 0 36 14 0 58 60 17 0 0 0 0 0 0 0 0 0 0 11 5 6 0 0 0 0 0
0 0 0 0 0 9 4 0 0 0 0 0 0 0 0 0 0 0 0 0 0 0 0 18 10 0 0 0 0 0 0 0 0 0 0 0 0 0 0 0 0 0 0 10 1 0 0 0 0
0 0 0 0 0 6 0 0 0 0 0 0 0 0 0 0 0 0 0 0 0 0 0 9 5 6 0 0 0 0 0 0 0 0 0 0 0 0 0 0 0 0 0 0 0 0 0 0 0
0 0 0 0 0 0 0 0 0 0 0 0 0 0 0 0 0 0 0 0 0 0 0 1 11 0 0 0 0 0 0 0 0 0 0 0 0 0 0 0 0 0 0 0 0 0 0 0 0
0 0 0 0 0 0 0 0 0 0 0 0 0 0 0 0 0 0 0 0 0 0 0 1 0 0 0 0 0 0 0 0 0 0 0 0 0 0 0 0 0 0 0 0 0 0 0 0 0
0 0 0 0 0 0 0 0 0 0 0 0 0 0 0 0 0 0 0 0 0 0 0 0 0 0 0 0 0 0 0 0 0 0 0 0 0 0 0 0 0 0 0 0 0 0 0 0 0
0 0 0 0 0 0 0 0 0 0 0 0 0 0 0 0 0 0 0 0 0 0 0 0 0 0 0 0 0 0 0 0 0 0 0 0 0 0 0 0 0 0 0 0 0 0 0 0 0
0 0 0 0 0 0 0 0 0 0 0 0 0 0 0 0 0 0 0 0 0 0 0 0 0 0 0 0 0 0 0 0 0 0 0 0 0 0 0 0 0 0 0 0 0 0 0 0 0
0 0 0 0 0 0 0 0 0 0 0 0 0 0 0 0 0 0 0 0 0 0 0 0 0 0 0 0 0 0 0 0 0 0 0 0 0 0 0 0 0 0 0 0 0 0 0 0 0
0 0 0 0 0 0 0 0 0 0 0 0 0 0 0 9 0 0 0 0 0 0 0 0 0 0 0 0 0 0 0 0 0 0 0 0 0 0 0 0 0 0 0 0 0 0 0 0 0
0 0 0 0 0 0 0 0 0 0 0 0 0 0 0 12 14 0 0 0 0 0 0 0 0 0 0 0 0 0 0 0 0 0 0 0 0 0 0 0 0 0 0 0 0 0 0 0 0
3 0 0 0 0 0 0 0 0 0 0 0 0 0 0 19 23 14 0 0 0 0 0 0 0 0 0 0 0 0 0 0 0 0 0 0 0 0 0 0 0 0 0 0 0 0 0 0 0
3 0 0 0 0 0 0 0 0 0 0 0 0 0 0 12 31 26 13 18 0 0 0 0 0 0 0 0 0 0 0 0 0 0 0 0 0 0 0 0 0 0 0 0 0 0 0 0 0
3 0 0 0 0 0 0 0 0 0 0 0 0 0 0 3 22 23 18 29 14 13 25 20 6 1 11 26 17 12 0 0 0 0 0 0 0 0 0 0 0 0 0 0 1 0 2 1 2
3 0 0 0 0 0 0 0 0 0 0 0 0 0 0 3 34 18 18 22 24 29 46 67 34 25 26 7 0 0 0 0 0 0 0 0 0 0 0 0 1 2 11 8 7 13 6 3 4
0 3 1 0 0 0 0 0 0 0 0 0 0 0 0 12 39 32 0 0 0 0 0 0 3 1 0 0 0 0 0 0 0 0 0 0 0 0 3 10 15 4 3 7 0 1 0 0 0
8 4 3 0 0 0 0 0 0 0 0 0 0 0 0 7 0 0 0 0 0 0 0 0 0 0 0 0 5 2 6 0 0 0 0 0 0 0 0 0 0 0 0 0 0 0 0 0 0
8 0 0 0 0 0 0 0 0 0 0 0 0 0 0 0 0 0 0 0 0 0 0 0 0 0 0 0 0 0 0 0 0 0 0 0 0 0 0 0 0 0 0 0 0 0 0 0 0
2 1 0 0 0 0 0 0 0 0 0 0 0 0 0 0 0 0 0 0 0 0 0 0 0 0 0 0 0 0 0 0 0 0 0 0 0 0 0 0 0 0 0 0 0 0 1 0 0
3 0 0 0 0 0 0 0 0 0 0 0 0 0 0 0 0 0 0 0 0 0 0 0 0 0 0 0 0 0 0 0 0 0 0 0 0 0 0 0 0 0 0 0 0 0 0 0 0
7 1 8 0 0 0 0 0 0 0 0 0 0 0 0 0 0 0 0 0 0 0 0 0 0 0 0 0 0 0 0 0 0 0 0 0 0 0 0 0 0 0 0 0 0 0 0 0 0
0 0 0 0 0 0 0 0 0 0 0 0 0 0 0 0 0 0 0 0 0 0 0 0 0 0 0 0 0 0 0 0 0 0 0 0 0 0 0 0 0 0 0 0 0 0 0 0 0
0 0 0 0 0 0 0 0 0 0 0 0 0 0 0 0 0 0 0 0 0 0 0 0 0 0 0 0 0 0 0 0 0 0 0 0 0 0 0 0 0 0 0 0 0 0 0 0 0
0 0 0 0 0 0 0 0 0 0 0 0 0 0 0 0 0 0 0 0 0 0 0 0 0 0 0 0 0 0 0 0 0 0 0 0 0 0 0 0 0 0 0 0 0 0 0 0 0
0 0 0 0 0 0 0 0 0 0 0 0 0 0 0 0 0 0 0 0 0 0 0 0 0 0 0 0 0 0 0 0 0 0 0 0 0 0 0 0 0 0 0 0 0 0 0 0 0
0 0 0 0 0 0 0 0 0 0 0 0 0 0 0 0 0 0 0 0 0 0 0 0 0 0 0 0 0 0 0 0 0 0 0 0 0 0 0 0 0 0 0 0 0 0 0 0 0
1 1 0 0 0 0 0 0 0 0 0 0 0 0 0 0 0 0 0 0 0 0 0 0 0 0 0 0 0 0 0 0 0 0 0 0 0 0 0 0 0 0 0 0 0 0 0 0 0
0 0 0 0 0 0 0 0 0 0 0 0 0 0 0 0 0 0 0 0 0 0 0 0 0 0 0 0 0 0 0 0 0 0 0 0 0 0 0 0 0 0 0 0 0 0 0 0 0
CIN
-355 -328 -300 -233 0 0 0 0 0 0 0 0 0 0 0 0 0 0 0 0 0 0 0 -162 0 -17 0 0 0 -83 -118 -165 0 -111 -74 -64 -54 -21 0 0 0 0 0 0 0 0 0 0 0
-152 -250 -70 -33 -21 0 0 0 0 0 -61 0 0 0 0 0 -221 0 0 0 0 0 0 -190 0 -121 0 0 0 -126 -148 -142 0 0 0 0 0 0 0 0 -1 -1 0 0 0 0 0 0 0
0 -12 -18 -96 -70 -5 -21 0 0 0 0 0 0 0 0 0 0 0 0 0 0 0 0 -142 0 -124 -113 -7 -76 -90 -153 0 0 0 0 0 0 0 0 0 0 -1 -1 0 0 0 0 0 0
0 0 0 0 0 -45 -40 0 0 0 0 0 0 0 0 0 0 0 0 0 0 0 0 -124 -167 0 0 0 0 0 0 0 0 0 0 0 0 0 0 0 0 0 0 -1 -1 0 0 0 0
0 0 0 0 0 -54 -33 0 0 0 0 0 0 0 0 0 0 0 0 0 0 0 -1 -1 -1 -50 0 0 0 0 0 0 0 0 0 0 0 0 0 0 0 0 0 0 0 0 0 0 0
0 0 0 0 0 0 0 0 0 0 0 0 0 0 0 0 0 0 0 0 0 0 0 -1 -1 0 0 0 0 0 0 0 0 0 0 0 0 0 0 0 0 0 0 0 0 0 0 0 0
0 0 0 0 0 0 0 0 0 0 0 0 0 0 0 0 0 0 0 0 0 0 0 -2 0 0 0 0 0 0 0 0 0 0 0 0 0 0 0 0 0 0 0 0 0 0 0 0 0
0 0 0 0 0 0 0 0 0 0 0 0 0 0 0 0 0 0 0 0 0 0 0 0 0 0 0 0 0 0 0 0 0 0 0 0 0 0 0 0 0 0 0 0 0 0 0 0 0
0 0 0 0 0 0 0 0 0 0 0 0 0 0 0 0 0 0 0 0 0 0 0 0 0 0 0 0 0 0 0 0 0 0 0 0 0 0 0 0 0 0 0 0 0 0 0 0 0
0 0 0 0 0 0 0 0 0 0 0 0 0 0 0 0 0 0 0 0 0 0 0 0 0 0 0 0 0 0 0 0 0 0 0 0 0 0 0 0 0 0 0 0 0 0 0 0 0
0 0 0 0 0 0 0 0 0 0 0 0 0 0 0 0 0 0 0 0 0 0 0 0 0 0 0 0 0 0 0 0 0 0 0 0 0 0 0 0 0 0 0 0 0 0 0 0 0
0 0 0 0 0 0 0 0 0 0 0 0 0 0 0 -266 0 0 0 0 0 0 0 0 0 0 0 0 0 0 0 0 0 0 0 0 0 0 0 0 0 0 0 0 0 0 0 0 0
-4 0 0 0 0 0 0 0 0 0 0 0 0 0 0 -277 -256 0 0 0 0 0 0 0 0 0 0 0 0 0 0 0 0 0 0 0 0 0 0 0 0 0 0 0 0 0 0 0 0
-59 0 0 0 0 0 0 0 0 0 0 0 0 0 0 -270 -262 -254 0 0 0 0 0 0 0 0 0 0 0 0 0 0 0 0 0 0 0 0 0 0 0 0 0 0 0 0 0 0 0
-54 0 0 0 0 0 0 0 0 0 0 0 0 0 0 -288 -247 -229 -228 -213 0 0 0 0 0 0 0 0 0 0 0 0 0 0 0 0 0 0 0 0 0 0 0 0 0 0 0 0 0
-14 0 0 0 0 0 0 0 0 0 0 0 0 0 0 -199 -243 -217 -213 -189 -220 -217 -184 -186 -154 -17 -145 -181 -183 -156 0 0 0 0 0 0 0 0 0 0 0 0 0 -9 -29 -9 -34 -6 -30
-3 0 0 0 0 0 0 0 0 0 0 0 0 0 0 -102 -227 -199 -198 -197 -211 -184 -149 -151 -184 -187 -185 -100 0 0 0 0 0 0 0 0 0 0 0 -21 -26 -51 -49 -42 -35 -36 -30 -26 -27
0 0 -5 0 0 0 0 0 0 0 0 0 0 0 0 -233 -204 -185 0 0 0 0 0 0 -107 -28 0 0 0 0 0 0 0 0 0 0 0 0 -77 -55 -47 -59 -50 -55 -16 -15 0 0 0
-4 -5 -3 0 0 0 0 0 0 0 0 0 0 0 0 -177 0 0 0 0 0 0 0 0 0 0 0 0 -174 -101 -160 0 0 0 0 0 0 0 0 0 0 0 0 0 0 0 0 0 0
-4 -5 -1 0 0 0 0 0 0 0 0 0 0 0 0 0 0 0 0 0 0 0 0 0 0 0 0 0 0 0 0 0 0 0 0 0 0 0 0 0 0 0 0 0 0 0 0 0 0
-3 -3 0 -1 0 0 0 0 0 0 0 0 0 0 0 0 0 0 0 0 0 0 0 0 0 0 0 0 0 0 0 0 0 0 0 0 0 0 0 0 0 0 0 0 0 0 0 0 0
0 -3 -1 0 0 0 0 0 0 0 0 0 0 0 0 0 0 0 0 0 0 0 0 0 0 0 0 0 0 0 0 0 0 0 0 0 0 0 0 0 0 0 0 0 0 0 0 -1 0
-1 -9 -7 0 0 -2 0 0 0 0 0 0 0 0 0 0 0 0 0 0 0 0 0 0 0 0 0 0 0 0 0 0 0 0 0 0 0 0 0 0 0 0 0 0 0 0 0 0 0
0 0 0 0 0 0 0 0 0 0 0 0 0 0 0 0 0 0 0 0 0 0 0 0 0 0 0 0 0 0 0 0 0 0 0 0 0 0 0 0 0 0 0 0 0 0 0 0 0
0 0 0 0 0 0 0 0 0 0 0 0 0 0 0 0 0 0 0 0 0 0 0 0 0 0 0 0 0 0 0 0 0 0 0 0 0 0 0 0 0 0 0 0 0 0 0 0 0
0 0 0 0 0 0 0 0 0 0 0 0 0 0 0 0 0 0 0 0 0 0 0 0 0 0 0 0 0 0 0 0 0 0 0 0 0 0 0 0 0 0 0 0 0 0 0 0 0
0 0 0 0 0 0 0 0 0 0 0 0 0 0 0 0 0 0 0 0 0 0 0 0 0 0 0 0 0 0 0 0 0 0 0 0 0 0 0 0 0 0 0 0 0 0 0 0 0
0 0 0 0 0 0 0 0 0 0 0 0 0 0 0 0 0 0 0 0 0 0 0 0 0 0 0 0 0 0 0 0 0 0 0 0 0 0 0 0 0 0 0 0 0 0 0 0 0
0 0 0 0 0 0 0 0 0 0 0 0 0 0 0 0 0 0 0 0 0 0 0 0 0 0 0 0 0 0 0 0 0 0 0 0 0 0 0 0 0 0 0 0 0 0 0 0 0
0 0 0 0 0 0 0 0 0 0 0 0 0 0 0 0 0 0 0 0 0 0 0 0 0 0 0 0 0 0 0 0 0 0 0 0 0 0 0 0 0 0 0 0 0 0 0 0 0
Wind_Speed
12 11 14 16 16 15 17 16 16 12 14 16 17 19 21 15 18 16 11 8 15 19 19 21 19 21 20 19 21 19 16 12 7 4 4 8 15 20 20 21 20 21 20 20 21 20 17 16 17
15 15 15 16 17 17 17 17 18 14 10 6 9 13 15 18 16 15 14 5 17 15 15 16 19 18 19 20 19 16 12 9 7 7 8 10 14 17 19 19 19 19 20 20 19 18 18 17 17
15 15 16 16 17 16 16 16 14 11 7 12 12 13 15 16 17 25 6 15 14 13 11 14 17 16 18 18 16 13 10 8 8 10 10 12 14 16 17 18 18 19 19 19 19 19 18 18 18
17 17 16 19 20 19 17 15 12 6 15 13 11 11 15 17 24 22 20 20 16 12 10 13 14 13 12 13 13 11 8 9 10 11 12 13 14 16 16 17 17 17 19 17 19 19 19 19 19
16 17 20 21 20 19 19 17 8 12 14 13 16 14 13 17 15 17 22 22 22 19 13 11 11 10 10 11 10 10 9 10 11 11 11 13 14 15 16 17 17 17 18 18 20 18 21 21 21
19 19 22 23 22 18 18 17 12 13 13 13 13 12 13 18 10 18 18 20 21 22 21 15 10 8 7 8 9 10 10 11 11 12 12 14 15 15 15 16 17 18 19 19 20 21 22 23 23
21 21 24 22 22 19 16 9 11 13 13 15 10 13 15 18 10 14 14 14 16 17 18 19 15 9 9 8 9 10 10 11 12 13 13 14 15 16 16 17 18 19 20 21 22 23 24 25 26
22 20 24 22 22 19 16 16 14 14 14 12 14 15 14 27 7 6 6 7 10 13 13 13 12 12 14 14 14 13 12 12 13 13 13 14 15 17 18 19 19 21 22 23 24 25 26 27 28
21 25 26 24 20 18 16 18 15 14 10 14 15 14 17 11 7 6 6 3 5 8 12 12 12 12 11 10 10 10 11 11 12 13 13 15 16 18 18 18 19 21 23 24 26 27 28 29 29
24 27 25 23 19 21 20 20 15 15 13 14 14 14 5 10 12 12 12 11 12 13 14 14 14 13 11 10 10 10 10 10 11 13 15 17 19 20 20 21 22 21 23 24 25 26 27 27 28
26 29 24 25 23 21 21 19 16 16 18 17 12 6 4 9 10 9 10 13 18 16 17 18 18 17 16 14 12 11 10 10 11 13 15 16 19 21 22 23 24 25 26 26 25 25 24 26 28
33 31 28 27 24 23 23 21 20 17 21 19 13 2 5 11 14 12 13 14 15 17 19 17 18 18 17 14 12 11 10 10 10 11 12 12 13 15 17 18 20 21 22 24 25 27 26 26 26
34 32 30 29 30 28 26 25 23 22 21 14 5 1 2 6 6 2 6 7 10 14 16 17 16 17 15 14 13 12 11 10 10 11 12 14 15 17 19 20 22 23 23 23 25 26 26 28 29
30 34 36 33 33 29 28 25 20 20 15 10 4 1 2 3 7 2 3 5 8 11 14 15 14 14 13 13 11 10 9 9 10 11 13 13 15 16 18 20 21 22 22 24 25 27 29 31 31
29 33 30 30 30 30 24 27 25 19 13 11 7 5 2 4 5 6 7 5 8 7 9 12 11 10 11 9 8 7 8 10 12 13 14 15 16 17 20 23 26 26 27 28 28 29 30 31 32
31 33 40 30 28 28 26 32 24 17 13 13 10 8 4 5 5 7 3 2 1 2 6 5 5 6 6 5 6 7 11 15 17 20 22 23 23 23 24 25 27 29 31 32 32 32 34 33 33
35 40 39 35 28 28 28 31 25 20 17 14 12 11 9 7 9 11 9 5 5 1 3 5 5 5 7 10 12 15 18 20 23 26 28 29 30 30 28 29 30 31 33 32 32 31 31 32 34
37 41 35 37 31 30 32 34 26 24 23 18 16 15 13 10 9 10 10 12 13 13 13 13 12 13 15 15 17 19 21 24 25 27 29 29 30 31 31 30 30 31 31 32 31 31 32 33 36
36 36 39 35 30 31 34 36 32 26 25 23 19 17 15 13 14 13 11 11 12 14 14 15 15 17 17 18 20 22 24 25 25 26 28 29 29 30 30 28 29 30 31 32 32 33 35 35 36
36 35 38 32 32 30 32 39 32 29 29 27 25 22 19 16 15 14 12 12 13 13 14 14 15 17 19 20 21 21 22 22 23 25 27 29 29 29 29 29 30 31 31 32 33 33 34 33 34
37 40 38 36 31 31 31 39 36 31 29 28 28 24 18 17 14 13 12 11 11 12 13 14 15 17 18 19 19 21 22 22 24 27 28 29 28 28 29 29 30 31 31 32 32 33 34 35 34
38 30 29 34 33 44 34 43 40 36 32 31 28 24 20 16 15 12 12 12 11 12 12 13 15 17 19 21 22 22 22 23 24 25 26 26 27 28 29 29 30 31 31 33 33 33 33 34 37
35 20 23 27 30 34 37 42 42 36 40 32 26 23 19 17 15 12 12 11 12 11 12 13 15 18 19 19 19 19 20 20 22 24 25 26 27 29 30 30 31 32 32 32 33 35 35 34 34
19 18 20 23 26 38 37 37 39 43 38 31 25 21 19 14 15 13 12 10 10 12 11 12 15 18 18 18 19 20 20 21 23 25 27 28 28 30 31 32 32 32 33 34 35 35 35 35 35
26 25 30 32 34 34 30 36 39 30 32 31 25 20 19 19 14 17 10 9 9 11 12 13 14 17 18 18 19 20 21 22 24 25 27 29 30 31 32 32 32 32 33 34 35 35 36 36 36
26 27 31 36 34 33 27 36 34 27 18 19 20 18 15 17 10 15 10 7 7 9 12 13 14 14 17 18 20 21 22 23 24 26 27 28 29 30 31 32 33 34 35 36 36 36 37 37 38
25 28 22 23 25 29 30 31 27 21 19 14 16 16 17 16 11 16 12 12 10 12 13 12 13 14 16 18 20 22 23 24 25 26 27 29 30 31 33 34 36 37 37 38 39 39 39 39 39
23 16 24 23 30 32 31 31 30 24 20 19 16 15 17 16 16 18 16 12 8 7 9 12 13 14 16 18 20 22 24 25 26 27 29 30 32 34 35 37 38 39 39 40 40 39 39 40 40
24 28 22 18 21 26 30 32 22 21 18 12 13 14 13 17 16 16 11 9 8 8 11 12 14 15 17 19 21 23 25 26 27 28 29 32 33 35 36 38 38 39 40 40 40 40 40 41 42
23 22 23 29 29 23 23 23 17 17 14 14 15 14 14 13 10 8 6 6 8 11 13 14 15 17 18 20 21 23 25 27 28 30 32 33 35 36 36 37 38 39 39 39 40 41 42 44 45
Wind_Direction
279 271 262 258 253 259 252 255 255 271 252 232 219 191 158 209 185 202 248 289 84 95 96 99 91 93 86 88 98 82 61 37 5 303 308 349 33 59 59 50 38 33 27 25 26 21 356 344 344
265 264 266 260 255 255 253 255 252 256 273 299 274 243 228 204 201 167 104 6 93 88 85 86 91 81 86 89 89 74 50 17 332 293 306 339 7 31 44 40 24 37 31 24 18 0 348 339 337
275 270 262 258 257 255 257 265 264 263 280 256 264 249 238 216 208 124 246 88 87 82 79 83 86 81 84 85 76 61 34 345 303 290 306 337 5 28 37 37 21 15 31 32 13 352 334 328 323
271 264 266 252 250 255 259 268 267 269 257 269 272 292 242 225 131 166 100 100 94 82 79 86 82 76 68 65 61 42 354 301 288 297 316 345 12 26 33 33 23 17 5 41 21 3 335 321 312
274 260 249 248 252 260 258 265 280 263 270 278 251 270 276 219 226 91 108 109 109 99 86 86 81 64 55 54 44 36 7 324 306 309 330 352 16 31 33 32 27 23 13 13 0 11 336 312 305
259 255 245 243 249 262 265 265 263 262 279 279 283 275 263 223 71 104 102 107 109 111 108 96 78 55 36 32 33 28 19 5 358 2 9 14 21 25 28 28 23 18 9 5 353 342 327 313 309
254 250 242 245 249 259 266 272 266 265 278 273 292 275 251 226 235 99 97 94 98 101 104 109 98 68 59 41 36 35 29 20 13 10 11 9 6 4 358 353 355 355 347 348 336 323 318 317 318
254 253 242 245 248 255 270 260 269 269 270 272 270 270 271 200 99 82 77 75 85 94 93 93 87 88 95 96 91 80 65 53 31 24 12 356 345 338 342 351 353 343 333 330 323 319 318 318 320
258 244 240 242 250 258 278 261 267 274 294 271 271 272 251 108 109 97 86 37 61 80 98 96 96 93 85 72 59 50 60 64 39 25 22 7 353 348 352 357 356 348 337 331 324 319 319 320 323
249 242 243 247 257 262 270 263 265 267 277 280 283 279 355 110 118 115 111 104 105 107 111 109 105 101 88 72 64 44 35 39 22 4 349 335 329 331 337 340 339 344 337 334 334 333 333 334 336
248 242 250 249 258 265 270 271 263 265 266 273 290 313 56 115 121 118 111 111 123 118 117 123 121 120 114 108 94 79 61 51 23 9 360 355 345 337 335 334 333 334 332 334 339 341 343 339 338
247 247 251 252 259 264 265 274 266 262 264 270 281 17 88 121 128 124 120 116 115 119 127 122 127 129 127 114 103 91 80 67 60 43 32 28 21 12 4 357 353 351 349 343 340 337 340 342 342
245 246 250 254 255 258 262 265 265 261 263 280 306 313 116 128 135 155 112 98 102 116 121 127 123 130 123 122 108 97 83 69 51 33 21 11 4 357 352 350 345 343 343 344 340 339 338 336 335
248 245 248 254 252 256 258 264 265 262 268 276 285 267 205 170 134 203 136 110 107 112 120 124 122 122 113 114 108 98 82 74 48 25 15 11 2 357 351 347 346 345 343 340 337 335 333 332 332
247 245 250 252 253 252 261 258 256 264 262 267 269 265 221 227 232 141 129 118 114 101 102 119 114 110 120 98 82 76 51 18 8 3 360 356 351 349 345 339 336 336 336 334 334 332 332 332 332
245 246 245 251 251 252 253 249 256 261 257 259 259 257 239 235 226 251 232 153 88 21 102 78 71 77 93 53 28 19 359 349 342 339 337 336 335 337 335 334 333 332 330 329 329 328 328 330 330
242 242 242 245 250 252 250 249 257 257 256 258 255 256 257 253 254 257 262 267 294 15 337 338 352 358 349 342 339 337 333 332 329 326 325 324 324 326 329 329 328 329 328 329 330 330 331 330 331
245 241 242 242 247 249 250 248 257 254 254 256 254 257 260 258 255 262 271 277 283 290 295 305 313 316 319 323 324 326 325 325 327 326 326 327 328 328 328 330 332 333 332 333 334 333 332 331 330
247 241 242 246 250 251 250 249 252 256 254 254 255 259 262 260 268 272 277 282 287 293 298 302 310 312 316 318 318 320 321 325 330 333 333 333 334 335 336 337 336 337 335 335 334 332 331 331 333
248 244 242 248 249 252 255 251 255 256 255 254 254 258 261 260 264 272 279 285 290 296 301 307 311 316 319 319 320 324 329 335 337 338 337 337 337 338 339 339 338 338 337 337 337 337 334 334 337
246 245 243 247 248 253 256 254 253 256 257 255 257 260 261 259 260 270 276 285 295 301 306 310 315 321 326 327 327 328 330 332 331 333 336 338 341 342 342 342 341 342 342 341 340 340 338 334 336
245 250 250 244 245 246 250 254 252 253 254 255 257 257 256 256 264 270 276 282 293 299 307 316 320 325 329 331 331 331 330 329 333 336 340 343 345 345 345 344 344 343 343 342 341 341 339 337 333
249 254 251 249 247 247 249 253 254 254 250 252 257 257 254 255 262 266 274 280 292 303 312 323 327 331 335 339 343 344 343 345 344 343 344 345 347 348 347 346 345 345 344 344 343 340 338 338 335
241 248 256 254 255 248 246 247 257 252 252 249 253 254 257 254 261 266 270 284 297 307 320 328 328 332 342 345 350 349 347 346 343 341 340 341 344 346 346 347 347 346 344 343 341 340 339 338 337
241 238 248 248 247 249 250 248 255 267 257 249 243 248 258 264 251 269 258 278 296 310 318 323 331 332 340 344 349 350 348 346 344 343 341 341 343 344 345 347 347 346 345 344 342 340 339 338 336
235 241 244 246 246 248 254 253 259 263 271 255 246 247 245 259 253 268 269 281 296 316 323 324 335 336 337 347 348 348 349 346 346 345 345 346 347 347 348 347 346 343 342 341 340 339 337 336 335
240 241 254 254 257 251 253 261 269 268 262 253 246 242 240 241 259 266 280 293 295 302 308 326 336 338 341 342 341 343 346 346 346 348 349 347 346 345 343 342 341 341 340 339 338 337 336 336 335
241 239 246 256 248 251 253 258 262 263 260 251 242 244 243 245 263 265 278 282 306 320 321 331 342 341 343 343 343 345 347 348 348 348 345 345 343 342 342 340 339 339 338 339 339 338 337 336 335
234 240 253 263 259 258 254 259 270 269 257 246 246 246 241 249 256 252 267 284 306 325 326 329 329 334 342 345 347 347 347 347 347 347 345 343 343 342 340 340 340 340 339 339 339 339 339 338 335
243 237 250 253 252 264 267 268 282 281 267 253 254 251 254 254 244 246 255 286 311 321 326 331 334 336 340 345 347 347 346 345 344 343 342 341 340 341 341 341 341 341 341 341 341 339 337 335 334